sat.trackr.live / text

‹ back to catalog

STARLINK-5151

NORAD 54066 · 2022-136R

PAYLOAD ACTIVE UNKNOWN

§ Identity

Operator
Country
US
Launch date
2022-10-20
Launch site
AFETR
Launch vehicle
Mass (kg)
RCS (m²)

Purposes: comms

External: N2YO · Heavens-Above · Gunter

§ Orbital elements

Epoch: 2026-05-24T23:41:35.159136Z

Period
95.48 min
Inclination
53.2190°
Eccentricity
0.0001185
Mean motion
15.08136725 rev/d
Perigee alt
541.1 km
Apogee alt
542.7 km
Semi-major
6,920.0 km
B*
-1.4190e-3
RAAN
1.5164°
Arg perigee
88.9296°
Mean anomaly
271.1831°
Rev number
19,836

§ Raw data

STARLINK-51511 54066U 22136R   26144.98721249 -.00022371  00000+0 -14190-2 0  99972 54066  53.2190   1.5164 0001185  88.9296 271.1831 15.08136725198365

JSON: /api/v1/satellites/54066 · /tle

For live sub-satellite position, see the globe view (requires WebGL).

§ Visibility from observer

Set your observer location to see the next 7 days of passes ≥ 10°. The values pass through the URL so the page stays shareable.

No JS? Fill the form by hand. The geolocation button needs JavaScript.